Timisoara, Romania

6:23 AM EEST on April 25, 2018 (GMT +0300)
Giarmata

Weather History for LRTR - January, 2014

Change the Weather History Date:

Wednesday, January 1, 2014

  Actual Average Record
Temperature  
Mean Temperature 36 °F -  
Max Temperature 44 °F 36 °F 50 °F (2018)
Min Temperature 28 °F 23 °F 1 °F (2015)
Degree Days  
Heating Degree Days 29    
Moisture  
Dew Point 32 °F    
Average Humidity 88    
Maximum Humidity 100    
Minimum Humidity 66    
Precipitation  
Precipitation 0.00 in 0.05 in - ()
Sea Level Pressure  
Sea Level Pressure 30.19 in    
Wind  
Wind Speed 4 mph ()    
Max Wind Speed 9 mph    
Max Gust Speed -    
Visibility 4.2 miles    
Events      
Averages and records for this station are not official NWS values.
T = Trace of Precipitation, MM = Missing Value Source: Averaged Metar Reports

Daily Weather History Graph

Daily Weather History Graph

Search for Another Location

Airport or City:

Astronomy

Jan. 01, 2014 Rise Set
Actual Time 8:16 AM EET 5:01 PM EET
Civil Twilight 7:41 AM EET 5:35 PM EET
Nautical Twilight 7:04 AM EET 6:13 PM EET
Astronomical Twilight 6:28 AM EET 6:49 PM EET
Moon 7:46 AM EET (1/1) 5:27 PM EET (1/1)
Length of Visible Light 9h 53m
Length of Day
8h 44m
Waning Crescent, 0% of the Moon is Illuminated
Jan 1
Waning Crescent
Jan 1
New
Jan 8
First Quarter
Jan 16
Full
Jan 24
Last Quarter

Hourly Weather History & Observations

Time (EET) Temp. Windchill Dew Point Humidity Pressure Visibility Wind Dir Wind Speed Gust Speed Precip Events Conditions
12:00 AM 30.2 °F - 28.4 °F 93% 30.24 in 3.1 mi Calm Calm - N/A   Mist
12:30 AM 30.2 °F - 28.4 °F 93% 30.24 in 3.1 mi Calm Calm - N/A   Mist
1:00 AM 30.2 °F - 28.4 °F 93% 30.24 in 2.5 mi Calm Calm - N/A   Mist
1:30 AM 30.2 °F 26.7 °F 28.4 °F 93% 30.21 in 2.5 mi East 3.5 mph - N/A   Mist
2:00 AM 28.4 °F 21.2 °F 26.6 °F 93% 30.21 in 3.1 mi ENE 6.9 mph - N/A   Mist
2:30 AM 30.2 °F 22.6 °F 28.4 °F 93% 30.21 in 4.3 mi ENE 8.1 mph - N/A   Unknown
3:00 AM 30.2 °F 22.6 °F 28.4 °F 93% 30.21 in 5.0 mi ENE 8.1 mph - N/A   Unknown
3:30 AM 30.2 °F 26.7 °F 28.4 °F 93% 30.21 in 5.0 mi NE 3.5 mph - N/A   Unknown
4:00 AM 30.2 °F 23.4 °F 28.4 °F 93% 30.21 in 5.0 mi NE 6.9 mph - N/A   Unknown
4:30 AM 30.2 °F 24.3 °F 28.4 °F 93% 30.21 in 5.0 mi NE 5.8 mph - N/A   Unknown
5:00 AM 28.4 °F - 28.4 °F 100% 30.21 in 5.0 mi ENE 2.3 mph - N/A   Unknown
5:30 AM 28.4 °F 23.3 °F 26.6 °F 93% 30.21 in 3.1 mi ENE 4.6 mph - N/A   Mist
6:00 AM 28.4 °F 24.6 °F 28.4 °F 100% 30.21 in - ENE 3.5 mph - N/A   Overcast
6:30 AM 30.2 °F - 28.4 °F 93% 30.21 in 3.7 mi East 2.3 mph - N/A   Unknown
7:00 AM 32.0 °F 24.8 °F 30.2 °F 93% 30.18 in 4.3 mi ENE 8.1 mph - N/A   Unknown
7:30 AM 32.0 °F 25.6 °F 32.0 °F 100% 30.18 in 5.0 mi East 6.9 mph - N/A   Unknown
8:00 AM 32.0 °F 27.5 °F 30.2 °F 93% 30.18 in 5.0 mi East 4.6 mph - N/A   Unknown
8:30 AM 30.2 °F 26.7 °F 28.4 °F 93% 30.18 in 3.7 mi ESE 3.5 mph - N/A   Unknown
9:00 AM 30.2 °F 24.3 °F 28.4 °F 93% 30.18 in 2.5 mi East 5.8 mph - N/A   Mist
9:30 AM 30.2 °F 25.4 °F 28.4 °F 93% 30.21 in 3.7 mi ESE 4.6 mph - N/A   Unknown
10:00 AM 33.8 °F 29.6 °F 32.0 °F 93% 30.21 in - ESE 4.6 mph - N/A   Clear
10:30 AM 37.4 °F 30.8 °F 37.4 °F 100% 30.21 in - ESE 9.2 mph - N/A   Clear
11:00 AM 39.2 °F 33.6 °F 37.4 °F 93% 30.21 in - ESE 8.1 mph - N/A   Clear
11:30 AM 41.0 °F 35.8 °F 35.6 °F 81% 30.18 in - ESE 8.1 mph - N/A   Clear
12:00 PM 41.0 °F 36.4 °F 35.6 °F 81% 30.18 in - ESE 6.9 mph - N/A   Clear
12:30 PM 42.8 °F 38.0 °F 35.6 °F 76% 30.18 in - ESE 8.1 mph - N/A   Clear
1:00 PM 42.8 °F 38.0 °F 35.6 °F 76% 30.15 in - East 8.1 mph - N/A   Clear
1:30 PM 42.8 °F 39.3 °F 35.6 °F 76% 30.15 in - East 5.8 mph - N/A   Clear
2:00 PM 44.6 °F 43.1 °F 35.6 °F 71% 30.18 in - ESE 3.5 mph - N/A   Clear
2:30 PM 44.6 °F 43.1 °F 35.6 °F 71% 30.15 in - ESE 3.5 mph - N/A   Clear
3:00 PM 44.6 °F 43.1 °F 33.8 °F 66% 30.15 in - East 3.5 mph - N/A   Clear
3:30 PM 42.8 °F 41.1 °F 35.6 °F 76% 30.15 in - ESE 3.5 mph - N/A   Clear
4:00 PM 44.6 °F 43.1 °F 35.6 °F 71% 30.18 in - East 3.5 mph - N/A   Clear
4:30 PM 42.8 °F 40.1 °F 35.6 °F 76% 30.15 in - East 4.6 mph - N/A   Clear
5:00 PM 41.0 °F 38.0 °F 33.8 °F 76% 30.15 in - East 4.6 mph - N/A   Clear
5:30 PM 41.0 °F 39.0 °F 33.8 °F 76% 30.18 in - ESE 3.5 mph - N/A   Clear
6:00 PM 39.2 °F 35.9 °F 32.0 °F 75% 30.18 in - East 4.6 mph - N/A   Clear
6:30 PM 37.4 °F 32.8 °F 33.8 °F 87% 30.18 in - East 5.8 mph - N/A   Clear
7:00 PM 39.2 °F 34.2 °F 35.6 °F 87% 30.18 in - East 6.9 mph - N/A   Clear
7:30 PM 39.2 °F 37.0 °F 33.8 °F 81% 30.18 in 6.2 mi South 3.5 mph - N/A   Partly Cloudy
8:00 PM 39.2 °F 37.0 °F 33.8 °F 81% 30.18 in 6.2 mi South 3.5 mph - N/A   Partly Cloudy
8:30 PM 37.4 °F - 33.8 °F 87% 30.18 in - ESE 2.3 mph - N/A   Clear
9:00 PM 35.6 °F 32.8 °F 33.8 °F 93% 30.18 in - East 3.5 mph - N/A   Clear
9:30 PM 32.0 °F 25.6 °F 30.2 °F 93% 30.18 in - East 6.9 mph - N/A   Clear
10:00 PM 32.0 °F 25.6 °F 30.2 °F 93% 30.15 in - East 6.9 mph - N/A   Clear
10:30 PM 32.0 °F 26.4 °F 30.2 °F 93% 30.15 in - East 5.8 mph - N/A   Clear
11:00 PM 30.2 °F 24.3 °F 28.4 °F 93% 30.15 in - East 5.8 mph - N/A   Clear
11:30 PM 28.4 °F 21.2 °F 28.4 °F 100% 30.15 in 5.0 mi East 6.9 mph - N/A   Unknown